sat.trackr.live / text

‹ back to catalog

STARLINK-31232

NORAD 58831 · 2024-017F

PAYLOAD ACTIVE UNKNOWN

§ Identity

Operator
Country
US
Launch date
2024-01-24
Launch site
AFWTR
Launch vehicle
Mass (kg)
RCS (m²)

Purposes: comms

External: N2YO · Heavens-Above · Gunter

§ Orbital elements

Epoch: 2026-05-24T21:49:32.866752Z

Period
94.01 min
Inclination
53.1599°
Eccentricity
0.0001196
Mean motion
15.31701843 rev/d
Perigee alt
469.9 km
Apogee alt
471.6 km
Semi-major
6,848.9 km
B*
1.1922e-5
RAAN
209.7326°
Arg perigee
80.7611°
Mean anomaly
279.3526°
Rev number
13,173

§ Raw data

STARLINK-312321 58831U 24017F   26144.90940818  .00000005  00000+0  11922-4 0  99982 58831  53.1599 209.7326 0001196  80.7611 279.3526 15.31701843131730

JSON: /api/v1/satellites/58831 · /tle

For live sub-satellite position, see the globe view (requires WebGL).

§ Visibility from observer

Set your observer location to see the next 7 days of passes ≥ 10°. The values pass through the URL so the page stays shareable.

No JS? Fill the form by hand. The geolocation button needs JavaScript.